Location: Dalton
(34.7700°N, 84.9700°W)
Time: 16:38:14
(UTC-04:00)

Vanguard 2 Rocket - Visible Passes

Search period start: 18 July 2018 00:00
Search period end: 28 July 2018 00:00
Orbit: 554 x 3327 km, 32.9° (Epoch: 17 July)

Date Brightness Start Highest point End Pass type
(mag) Time Alt. Az. Time Alt. Az. Time Alt. Az.
18 Jul 7.6 03:54:26 45° SSE 03:54:58 46° SSE 04:04:13 10° E visible
18 Jul 8.2 06:01:00 10° W 06:08:47 81° S 06:23:10 10° E visible
19 Jul 8.7 02:58:17 23° ESE 02:58:17 23° ESE 03:02:24 10° E visible
19 Jul 7.7 05:04:05 24° WSW 05:08:42 74° SSE 05:20:42 10° E visible
20 Jul 7.2 04:07:56 54° SSW 04:09:02 60° SSE 04:18:40 10° E visible
21 Jul 8.1 03:11:49 33° ESE 03:11:49 33° ESE 03:17:06 10° E visible
21 Jul 7.7 05:17:37 17° W 05:23:04 80° S 05:35:04 10° E visible
22 Jul 9.4 02:15:42 10° E 02:15:42 10° E 02:15:49 10° E visible
22 Jul 7.1 04:21:30 49° WSW 04:23:19 73° S 04:33:05 10° E visible
23 Jul 7.5 03:25:26 46° ESE 03:25:26 46° ESE 03:31:35 10° E visible
23 Jul 7.7 05:31:14 12° W 05:37:28 79° S 05:49:26 10° E visible
24 Jul 9.1 02:29:22 15° E 02:29:22 15° E 02:30:33 10° E visible
24 Jul 7.1 04:35:11 39° WSW 04:37:42 78° S 04:47:27 10° E visible
25 Jul 7.1 03:39:10 60° ESE 03:39:10 60° ESE 03:46:00 10° E visible
25 Jul 7.7 05:45:24 10° W 05:51:52 71° S 06:03:41 10° ESE visible
26 Jul 8.8 02:43:11 18° E 02:43:11 18° E 02:45:04 10° E visible
26 Jul 7.1 04:49:00 31° W 04:52:07 76° S 05:01:49 10° E visible
27 Jul 6.8 03:53:04 71° SE 03:53:04 71° SE 04:00:23 10° E visible
27 Jul 7.8 05:59:53 10° W 06:06:16 59° SSW 06:17:40 10° ESE visible
